This demonstration page uses our WeatherBlox Daily Observations layout. Learn more.

39.92423, -83.80882

Hourly Observations for June 13, 2019

Temp ( °F °C ) Dew Point ( °F °C ) Humidity (%) Winds ( mph kmh ) Pressure ( in mb ) Visibility ( mi km ) Precip ( " mm )
12:13 am 00:13 Mostly Cloudy 61 16 61 16 100 100 S 9 15 29.78 1008 10 16.0934 0 0
12:56 am 00:56 Cloudy 61 16.1 60 15.6 97 97 S 6 9 29.77 1008 10 16.0934 0 0
1:13 am 01:13 Cloudy 61 16 61 16 100 100 S 8 13 29.76 1008 10 16.0934 0 0
1:23 am 01:23 Cloudy 61 16 61 16 100 100 S 7 11 29.76 1008 10 16.0934 0 0
1:56 am 01:56 Cloudy 61 16.1 61 16.1 100 100 SW 12 19 29.75 1008 10 16.0934 0 0
2:07 am 02:07 Cloudy 61 16 61 16 100 100 SW 10 17 29.75 1007 10 16.0934 0 0
2:27 am 02:27 Cloudy 61 16 61 16 100 100 SW 12 19 29.74 1007 10 16.0934 0 0
2:44 am 02:44 Mostly Cloudy 61 16 61 16 100 100 SW 10 17 29.74 1007 10 16.0934 0 0
2:56 am 02:56 Mostly Cloudy 61 16.1 61 16.1 100 100 SW 8 13 29.73 1007 10 16.0934 0 0
3:04 am 03:04 Cloudy 61 16 61 16 100 100 SW 8 13 29.74 1007 8 12.87472 0 0
3:37 am 03:37 Cloudy with Light Rain 61 16 57 14 88 88 W 10 17 29.73 1007 10 16.0934 0 0.0254
3:56 am 03:56 Cloudy with Light Rain 59 15 57 13.9 93 93 W 8 13 29.73 1007 10 16.0934 0.01 0.254
4:56 am 04:56 Cloudy 58 14.4 56 13.3 93 93 W 5 7 29.72 1007 10 16.0934 0 0.0254
5:56 am 05:56 Cloudy 58 14.4 57 13.9 97 97 SSW 3 6 29.72 1007 10 16.0934 0 0
6:56 am 06:56 Cloudy 58 14.4 57 13.9 97 97 SW 6 9 29.73 1007 10 16.0934 0 0
7:56 am 07:56 Cloudy 58 14.4 57 13.9 97 97 SW 7 11 29.74 1007 10 16.0934 0 0.0254
8:56 am 08:56 Cloudy 60 15.6 57 13.9 90 90 WSW 14 22 29.73 1007 10 16.0934 0 0
9:30 am 09:30 Cloudy with Light Rain 61 16 55 13 83 83 SW 15 24 29.72 1006 10 16.0934 0 0.0254
9:45 am 09:45 Cloudy with Light Rain 61 16 55 13 83 83 SW 14 22 29.72 1006 10 16.0934 0 0.0254
9:56 am 09:56 Cloudy 60 15.6 57 13.9 90 90 SW 12 19 29.73 1007 10 16.0934 0 0.0254
10:26 am 10:26 Cloudy with Rain 59 15 57 14 94 94 WSW 15 24 29.72 1006 4 6.43736 0 0.0254
10:36 am 10:36 Cloudy with Light Rain 57 14 57 14 100 100 WSW 23 37 29.73 1007 4 6.43736 0.04 1.016
10:56 am 10:56 Cloudy 56 13.3 55 12.8 97 97 W 18 30 29.75 1007 10 16.0934 0.04 1.016
11:23 am 11:23 Cloudy 57 14 54 12 88 88 W 17 28 29.76 1008 10 16.0934 0 0
11:56 am 11:56 Cloudy 58 14.4 52 11.1 81 81 W 20 31 29.77 1008 10 16.0934 0 0
12:56 pm 12:56 Cloudy 59 15 52 11.1 78 78 W 20 31 29.78 1009 10 16.0934 0 0
1:10 pm 13:10 Cloudy with Light Rain 55 13 52 11 88 88 W 24 39 29.79 1009 9 14.48406 0 0.0254
1:38 pm 13:38 Cloudy 57 14 52 11 82 82 W 26 43 29.8 1009 10 16.0934 0 0.0254
1:46 pm 13:46 Cloudy 57 14 52 11 82 82 W 24 39 29.8 1009 10 16.0934 0 0.0254
1:56 pm 13:56 Cloudy 58 14.4 52 11.1 81 81 WSW 21 33 29.8 1009 10 16.0934 0 0.0254
2:09 pm 14:09 Cloudy 57 14 52 11 82 82 W 25 41 29.81 1009 10 16.0934 0 0
2:38 pm 14:38 Cloudy 57 14 50 10 77 77 W 26 43 29.81 1009 10 16.0934 0 0.0254
3:56 pm 15:56 Cloudy with Light Rain 56 13.3 50 10 81 81 W 30 48 29.83 1010 10 16.0934 0 0.0254
4:56 pm 16:56 Cloudy 60 15.6 50 10 70 70 W 32 52 29.84 1010 10 16.0934 0 0.0254
5:56 pm 17:56 Cloudy 58 14.4 47 8.3 67 67 W 31 50 29.87 1012 10 16.0934 0 0
6:56 pm 18:56 Cloudy with Light Rain 55 12.8 48 8.9 77 77 WNW 23 37 29.91 1013 10 16.0934 0 0.0254
7:05 pm 19:05 Cloudy with Light Rain 55 13 48 9 77 77 W 26 43 29.92 1013 10 16.0934 0 0.0254
7:33 pm 19:33 Cloudy with Light Rain 54 12 50 10 88 88 W 25 41 29.94 1014 10 16.0934 0 0.0254
7:56 pm 19:56 Cloudy with Light Rain 53 11.7 50 10 89 89 WNW 20 31 29.96 1014 10 16.0934 0 0.0254
8:33 pm 20:33 Cloudy with Light Rain 54 12 52 11 94 94 W 20 31 29.97 1015 10 16.0934 0 0.0254
8:48 pm 20:48 Cloudy 54 12 50 10 88 88 WNW 16 26 29.98 1015 10 16.0934 0 0.0254
8:56 pm 20:56 Cloudy with Light Rain 53 11.7 50 10 89 89 W 16 26 29.98 1015 10 16.0934 0 0.0254
9:56 pm 21:56 Cloudy 53 11.7 49 9.4 86 86 W 13 20 30 1016 10 16.0934 0 0.0254
10:56 pm 22:56 Clear 53 11.7 47 8.3 80 80 W 14 22 30.02 1017 10 16.0934 0 0
11:56 pm 23:56 Clear 53 11.7 45 7.2 74 74 W 14 22 30.03 1017 10 16.0934 0 0

Powered by AerisWeather